Regional Weather Roundup
Issued by NWS

Home | Current Version | Previous Version | Graphics & Text | Print | Product List | Glossary On
Versions: 1 2 3 4 5 6 7 8 9 10 11 12 13 14 15 16 17 18 19 20 21 22 23 24 25 26 27 28 29 30 31 32 33 34 35 36 37 38 39 40 41 42 43 44 45 46 47 48 49 50
000
ASUS45 KBOU 280507
RWRCO

WEATHER ROUNDUP FOR COLORADO
NATIONAL WEATHER SERVICE DENVER/BOULDER CO
1100 PM MDT WED JUL 27 2016

NOTE: "FAIR" INDICATES FEW OR NO CLOUDS BELOW 12000 FEET WITH NO
SIGNIFICANT WEATHER AND/OR OBSTRUCTIONS TO VISIBILITY.

COZ001>005-013-030-031-280600-
...NORTHWEST COLORADO...

CITY           SKY/WX    TMP DP  RH WIND       PRES   REMARKS
CRAIG          FAIR      55  33  43 S3        30.22R
HAYDEN         FAIR      64  27  24 N5        30.24S
MEEKER         FAIR      63  37  38 VRB3      30.24R
MOUNT WERNER   NOT AVBL
STEAMBOAT SPGS FAIR      61  35  36 SE8       30.28R
WALDEN         FAIR      48  32  53 SE12      30.39F
$$

COZ006>008-011-280600-
...WEST CENTRAL VALLEYS...

CITY           SKY/WX    TMP DP  RH WIND       PRES   REMARKS
GRAND JUNCTION FAIR      81  34  18 SE3       30.06R
MONTROSE       FAIR      73  38  27 SE13      30.18R
EAGLE          FAIR      66  34  30 E6        30.28R
RIFLE          FAIR      72  28  19 SE10      30.15R
DELTA          NOT AVBL
NUCLA          NOT AVBL
$$

COZ017>023-064>068-280600-
...SOUTHWEST COLORADO...

CITY           SKY/WX    TMP DP  RH WIND       PRES   REMARKS
DURANGO        FAIR      68  24  19 SW3       30.22S
CORTEZ         FAIR      68  42  38 NE6       30.18R
PAGOSA SPRINGS FAIR      65  28  24 CALM      30.33S
TELLURIDE      FAIR      62  31  31 SE6       30.51S
WOLF CREEK PAS FAIR      55  28  35 NE14      30.75R
$$

COZ009-010-012-014-032>034-037-058>063-280600-
...CENTRAL COLORADO...

CITY           SKY/WX    TMP DP  RH WIND       PRES   REMARKS
ASPEN          FAIR      62  36  37 SW10      30.37S
BUENA VISTA    FAIR      60  28  30 W5        30.40S
COPPER MTN     FAIR      61  12  15 NW8       30.75S
BERTHOUD PASS  FAIR      46  32  57 CALM      30.78F
COTTONWOOD PAS FAIR      70  19  14 CALM      30.56S
GUNNISON       FAIR      63  37  39 CALM      30.39R
KREMMLING      FAIR      59  34  38 CALM      30.35S
LEADVILLE      FAIR      52  23  32 NE5       30.56R
MONARCH PASS   FAIR      54  34  47 MISG      30.83F
SALIDA         FAIR      67  38  34 SW9       30.43R
SUNLIGHT       NOT AVBL
WILKERSON PASS FAIR      55  36  47 S5        30.71S
$$

COZ069>075-280600-
...SAN LUIS VALLEY/SANGRE DE CRISTO MOUNTAINS...

CITY           SKY/WX    TMP DP  RH WIND       PRES   REMARKS
ALAMOSA        FAIR      69  41  36 SE8       30.32R
LA VETA PASS   FAIR      59  43  55 E6G16     30.57S
SAGUACHE       FAIR      68  36  30 NW6       30.38R
$$

COZ035-036-038>040-280600-
...NORTHERN COLORADO FRONT RANGE...

CITY           SKY/WX    TMP DP  RH WIND       PRES   REMARKS
DENVER INTL AP MOCLDY    72  58  61 E10       30.21R
DMNS CITY PARK   N/A     72  58  61 NW3       30.20S
AURORA         MOCLDY    70  53  54 SE10      30.23R
FRONT RANGE AP NOT AVBL
ERIE MUNI ARPT FAIR      70  54  56 N5        30.21S
BOULDER MUN AP FAIR      72  55  56 N6        30.23R
CENTENNIAL     MOCLDY    73  52  47 SE8       30.23S
BROOMFIELD     NOT AVBL
LONGMONT       NOT AVBL
$$

COZ041-046-047-076>085-087-088-280600-
...PIKES PEAK/PALMER DIVIDE AND SOUTHERN FOOTHILLS...

CITY           SKY/WX    TMP DP  RH WIND       PRES   REMARKS
COLO. SPRINGS  FAIR      72  55  55 CALM      30.30R
A. F. ACADEMY  FAIR      70  55  57 SE9       30.30R
SCHRIEVER AFB  NOT AVBL
ELLICOTT       FAIR     N/A N/A N/A E12       30.26S
FALCON         FAIR      65  53  65 CALM      30.34R
FORT CARSON    FAIR      71  53  53 SW2       30.25R
LIMON          LGT RAIN  69  59  70 SE10      30.24R
MONUMENT HILL  FAIR      63  52  67 S7        30.35R
TRINIDAD       NOT AVBL
$$

COZ042>045-048>051-090-091-280600-
...NORTHEAST COLORADO...

CITY           SKY/WX    TMP DP  RH WIND       PRES   REMARKS
GREELEY ARPT   FAIR      66  57  72 NE3       30.21R
AKRON          FAIR      66  59  78 SE8       30.19R
BURLINGTON     FAIR      71  62  73 SE9       30.16S
WRAY           FAIR      73  61  64 SE6       30.15R
STERLING       NOT AVBL
HOLYOKE        NOT AVBL
FORT MORGAN    NOT AVBL
$$

COZ086-089-092>099-280600-
...SOUTHEAST COLORADO...

CITY           SKY/WX    TMP DP  RH WIND       PRES   REMARKS
PUEBLO         FAIR      79  55  43 E14       30.13R
LA JUNTA       FAIR      77  56  48 S9        30.13R
LAMAR          FAIR      70  61  73 NE3       30.09S
SPRINGFIELD      N/A     66  59  78 SW10      30.15S
$$



USA.gov is the U.S. government's official web portal to all federal, state and local government web resources and services.